UAE25J OMDB-DAAG

Flight info

Callsign UAE25J
Flight time N/A
Altitude 34000
Route SENPA N571 ALPOB L768 VATIM L550 NOVPA N697 MENLI L677 CVO L617 NABSI M872 METRU UP868 ARLOS DCT KUTOS DCT OMENI UL874 DIMAO UZ888 BABOR UA31 ALR
Aircraft B77W/H-SDE1E2E3FGHIJ2J3J4J5M1RWXY/LB1D1

Departure

Time 2026-04-21 14:41
Airport Dubai International Airport (OMDB)

Arrival

Time N/A
Airport Houari Boumediene Airport (DAAG)
Time Latitude Longitude Altitude Speed Heading
2026-04-21 14:23 25.24837 55.36369 34 ft 0 kts 211°
2026-04-21 14:28 25.24849 55.36376 35 ft 2 kts 201°
2026-04-21 14:29 25.24863 55.36380 35 ft 2 kts 188°
2026-04-21 14:29 25.24878 55.36382 35 ft 2 kts 177°
2026-04-21 14:29 25.24893 55.36380 35 ft 2 kts 166°
2026-04-21 14:29 25.24907 55.36375 34 ft 2 kts 155°
2026-04-21 14:30 25.24920 55.36367 35 ft 2 kts 144°
2026-04-21 14:30 25.24931 55.36357 35 ft 2 kts 133°
2026-04-21 14:30 25.24941 55.36344 34 ft 2 kts 122°
2026-04-21 14:30 25.24945 55.36336 35 ft 0 kts 121°
2026-04-21 14:32 25.24945 55.36337 34 ft 0 kts 121°
2026-04-21 14:33 25.24944 55.36338 34 ft 0 kts 121°
2026-04-21 14:33 25.24940 55.36345 34 ft 1 kts 121°
2026-04-21 14:33 25.24935 55.36354 34 ft 1 kts 120°
2026-04-21 14:33 25.24926 55.36372 34 ft 3 kts 119°
2026-04-21 14:34 25.24912 55.36402 34 ft 4 kts 116°
2026-04-21 14:34 25.24899 55.36440 35 ft 5 kts 109°
2026-04-21 14:34 25.24886 55.36478 37 ft 4 kts 110°
2026-04-21 14:34 25.24876 55.36505 39 ft 3 kts 114°
2026-04-21 14:35 25.24866 55.36528 41 ft 2 kts 116°
2026-04-21 14:35 25.24855 55.36549 42 ft 4 kts 117°
2026-04-21 14:35 25.24838 55.36582 44 ft 6 kts 119°
2026-04-21 14:35 25.24811 55.36633 47 ft 9 kts 115°
2026-04-21 14:36 25.24789 55.36706 48 ft 12 kts 105°
2026-04-21 14:36 25.24759 55.36826 45 ft 18 kts 108°
2026-04-21 14:36 25.24756 55.36914 52 ft 6 kts 63°
2026-04-21 14:36 25.24793 55.36959 53 ft 9 kts 38°
2026-04-21 14:37 25.24855 55.37006 53 ft 12 kts 32°
2026-04-21 14:37 25.24943 55.37063 53 ft 16 kts 28°
2026-04-21 14:37 25.25042 55.37139 53 ft 17 kts 54°
2026-04-21 14:37 25.25027 55.37270 53 ft 18 kts 118°
2026-04-21 14:38 25.24961 55.37389 54 ft 17 kts 124°
2026-04-21 14:38 25.24900 55.37492 56 ft 15 kts 122°
2026-04-21 14:38 25.24848 55.37593 57 ft 15 kts 119°
2026-04-21 14:38 25.24793 55.37694 57 ft 16 kts 121°
2026-04-21 14:39 25.24735 55.37800 57 ft 15 kts 122°
2026-04-21 14:39 25.24683 55.37903 58 ft 14 kts 99°
2026-04-21 14:39 25.24695 55.37953 59 ft 0 kts 50°
2026-04-21 14:40 25.24705 55.37967 59 ft 5 kts 46°
2026-04-21 14:40 25.24761 55.38000 60 ft 12 kts
2026-04-21 14:40 25.24852 55.37930 58 ft 25 kts 306°
2026-04-21 14:41 25.25100 55.37493 55 ft 109 kts 301°
2026-04-21 14:41 25.25627 55.36544 53 ft 180 kts 302°
2026-04-21 14:41 25.26300 55.35385 959 ft 170 kts 306°
2026-04-21 14:41 25.26911 55.34325 1574 ft 175 kts 302°
2026-04-21 14:42 25.27573 55.33083 1795 ft 199 kts 303°
2026-04-21 14:42 25.28304 55.31763 2427 ft 202 kts 303°
2026-04-21 14:42 25.29020 55.30463 3131 ft 202 kts 302°
2026-04-21 14:42 25.29533 55.29012 3755 ft 207 kts 277°
2026-04-21 14:43 25.29635 55.27437 4468 ft 208 kts 277°
2026-04-21 14:43 25.29804 55.25864 5234 ft 207 kts 277°
2026-04-21 14:43 25.29941 55.24312 5970 ft 206 kts 276°
2026-04-21 14:43 25.30085 55.22652 6214 ft 232 kts 276°
2026-04-21 14:44 25.30237 55.20816 6699 ft 247 kts 276°
2026-04-21 14:44 25.30380 55.18936 7494 ft 248 kts 272°
2026-04-21 14:44 25.30289 55.16938 7775 ft 273 kts 265°
2026-04-21 14:44 25.30125 55.14834 8386 ft 284 kts 266°
2026-04-21 14:45 25.29974 55.12655 9317 ft 284 kts 265°
2026-04-21 14:45 25.29813 55.10516 10236 ft 285 kts 265°
2026-04-21 14:45 25.29642 55.08245 10384 ft 317 kts 265°
2026-04-21 14:45 25.29448 55.05718 10697 ft 340 kts 265°
2026-04-21 14:46 25.29246 55.03097 11647 ft 342 kts 265°
2026-04-21 14:46 25.29045 55.00519 12660 ft 343 kts 265°
2026-04-21 14:46 25.28844 54.97915 13690 ft 344 kts 265°
2026-04-21 14:46 25.28639 54.95293 14624 ft 348 kts 265°
2026-04-21 14:47 25.28534 54.92620 15556 ft 351 kts 269°
2026-04-21 14:47 25.28466 54.89956 16469 ft 353 kts 268°
2026-04-21 14:47 25.28382 54.87263 17359 ft 356 kts 269°
2026-04-21 14:47 25.28301 54.84508 18238 ft 359 kts 269°
2026-04-21 14:48 25.28225 54.81770 18980 ft 364 kts 269°
2026-04-21 14:48 25.28143 54.78961 19651 ft 371 kts 268°
2026-04-21 14:48 25.28093 54.76126 20427 ft 373 kts 272°
2026-04-21 14:48 25.28427 54.73257 21185 ft 377 kts 282°
2026-04-21 14:49 25.29128 54.70491 21882 ft 381 kts 284°
2026-04-21 14:49 25.29817 54.67630 22509 ft 387 kts 283°
2026-04-21 14:49 25.30533 54.64763 23173 ft 391 kts 284°
2026-04-21 14:49 25.31260 54.61865 23872 ft 394 kts 284°
2026-04-21 14:50 25.31741 54.59940 24265 ft 398 kts 284°
2026-04-21 14:50 25.32741 54.55964 25034 ft 405 kts 284°
2026-04-21 14:50 25.33499 54.52985 25639 ft 409 kts 285°
2026-04-21 14:50 25.34328 54.49951 26211 ft 413 kts 285°
2026-04-21 14:51 25.35149 54.46907 26767 ft 418 kts 284°
2026-04-21 14:51 25.35983 54.43819 27340 ft 421 kts 285°
2026-04-21 14:51 25.36817 54.40723 27840 ft 427 kts 285°
2026-04-21 14:51 25.37671 54.37567 28334 ft 431 kts 284°
2026-04-21 14:52 25.38528 54.34385 28868 ft 435 kts 284°
2026-04-21 14:52 25.39390 54.31186 29439 ft 438 kts 284°
2026-04-21 14:52 25.40263 54.27927 29972 ft 441 kts 284°
2026-04-21 14:52 25.41064 54.24695 30489 ft 444 kts 283°
2026-04-21 14:53 25.41887 54.21401 31119 ft 444 kts 283°
2026-04-21 14:53 25.42704 54.18120 31641 ft 446 kts 283°
2026-04-21 14:53 25.43519 54.14845 31784 ft 434 kts 283°
2026-04-21 14:54 25.45099 54.08435 31791 ft 431 kts 283°
2026-04-21 14:54 25.46640 54.02034 31785 ft 434 kts 283°
2026-04-21 14:55 25.48200 53.95549 31779 ft 436 kts 283°
2026-04-21 14:55 25.49757 53.89062 31779 ft 439 kts 283°
2026-04-21 14:56 25.51324 53.82520 31781 ft 441 kts 283°
2026-04-21 14:56 25.52890 53.75960 31779 ft 443 kts 283°
2026-04-21 14:57 25.54467 53.69387 31775 ft 445 kts 283°
2026-04-21 14:57 25.56048 53.62766 31778 ft 447 kts 283°
2026-04-21 14:58 25.57626 53.56141 31778 ft 448 kts 283°
2026-04-21 14:58 25.59218 53.49475 31777 ft 449 kts 283°
2026-04-21 14:59 25.60806 53.42781 31769 ft 450 kts 283°
2026-04-21 14:59 25.62380 53.36125 31768 ft 447 kts 283°
2026-04-21 15:00 25.63942 53.29507 31775 ft 445 kts 283°
2026-04-21 15:00 25.65505 53.22873 31783 ft 445 kts 283°
2026-04-21 15:01 25.67058 53.16260 31781 ft 447 kts 283°
2026-04-21 15:01 25.68615 53.09622 31779 ft 448 kts 283°
2026-04-21 15:02 25.70216 53.02926 31776 ft 450 kts 286°
2026-04-21 15:02 25.72832 52.96742 31797 ft 445 kts 295°
2026-04-21 15:03 25.75680 52.90630 31805 ft 445 kts 295°
2026-04-21 15:03 25.78527 52.84581 31801 ft 445 kts 295°
2026-04-21 15:04 25.81396 52.78495 31805 ft 445 kts 295°
2026-04-21 15:04 25.84252 52.72425 31808 ft 446 kts 295°
2026-04-21 15:05 25.87126 52.66312 31804 ft 448 kts 295°
2026-04-21 15:05 25.91362 52.57077 31805 ft 446 kts 294°
2026-04-21 15:06 25.94087 52.50915 31802 ft 447 kts 294°
2026-04-21 15:06 25.96829 52.44698 31801 ft 447 kts 294°
2026-04-21 15:07 25.99551 52.38539 31792 ft 445 kts 294°
2026-04-21 15:07 26.02292 52.32398 31807 ft 439 kts 294°
2026-04-21 15:08 26.04990 52.26358 31811 ft 437 kts 294°
2026-04-21 15:08 26.07699 52.20271 31813 ft 439 kts 294°
2026-04-21 15:09 26.10414 52.14169 31809 ft 439 kts 294°
2026-04-21 15:09 26.13127 52.08063 31810 ft 441 kts 294°
2026-04-21 15:10 26.15849 52.01929 31809 ft 443 kts 294°
2026-04-21 15:10 26.18597 51.95813 31808 ft 444 kts 294°